Time,B instrument,Bx,By,Bz,sigma B,Ion instrument,Status,Tp_par,Tp_perp,carrot,r_sun,clat,clong,earth_he_angle,n_p,vp_x,vp_y,vp_z,vth_p_par,vth_p_perp
1980-04-07 00:00:57,1,6.15,-12.9,0.8,0.193649,1,1,84678.7,143787.0,1693,0.83234793,-4.2142534,21.596191,274.27588,7.83048,341.777,-2.59758,-9.61025,37.3891,48.7211
1980-04-07 00:08:11,1,5.525,-13.05,0.2,0.315238,1,1,49606.3,102180.0,1693,0.83230764,-4.2148085,21.529541,274.27563,6.55335,340.516,8.2717,-0.377911,28.6172,41.0715
1980-04-07 00:10:53,1,5.25,-13.0,-0.3,0.403113,1,1,50368.8,102077.0,1693,0.83229756,-4.2149467,21.506104,274.27563,6.55773,339.088,7.90895,2.32547,28.8363,41.0508
1980-04-07 00:13:35,1,4.8,-13.2,-1.1,0.0,1,1,36886.3,90256.7,1693,0.83228242,-4.2151546,21.47876,274.27563,5.80375,340.785,11.0947,2.36555,24.6769,38.6009
1980-04-07 00:16:17,1,4.13333,-13.3,-0.766667,0.581187,1,1,51892.5,95030.8,1693,0.83226734,-4.2153635,21.455322,274.27563,6.24421,345.183,11.1933,0.536236,29.2691,39.6087
1980-04-07 00:18:59,1,4.73333,-12.9,-0.433333,0.405518,1,1,45219.6,103334.0,1693,0.83225727,-4.2155018,21.431885,274.27563,6.39447,343.065,10.0358,5.51155,27.3226,41.3028
1980-04-07 00:21:41,1,9.1,-9.73333,1.7,0.298142,1,1,50281.5,109024.0,1693,0.83224213,-4.2157097,21.404541,274.27563,6.37574,334.831,-5.8189,-1.73841,28.8112,42.4248
1980-04-07 00:24:23,1,8.43333,-10.6333,0.7,0.253859,1,1,46955.7,127871.0,1693,0.83222699,-4.2159185,21.381104,274.27563,6.4995,339.191,-0.613351,1.65493,27.8421,45.9456
1980-04-07 00:27:05,1,7.9,-11.1,0.725,0.303109,1,1,53149.0,121836.0,1693,0.83221191,-4.2161264,21.357666,274.27563,6.40342,343.069,2.37104,-1.07114,29.6214,44.8483
1980-04-07 00:29:47,1,9.125,-9.85,0.9,0.156125,1,1,57284.4,109670.0,1693,0.83220184,-4.2162647,21.330322,274.27563,6.66403,331.74,-7.02267,-0.898459,30.7522,42.5503
1980-04-07 00:32:29,1,9.3,-9.35,2.85,0.83666,1,1,55728.6,126757.0,1693,0.8321867,-4.2164736,21.306885,274.27563,6.5639,326.474,-14.4854,-22.4406,30.3317,45.745
1980-04-07 00:35:11,1,8.73333,-10.2,3.33333,0.362093,1,1,62489.0,123342.0,1693,0.83217156,-4.2166815,21.283447,274.27563,6.74686,329.731,-13.4646,-26.1214,32.1188,45.1246
1980-04-07 00:37:53,1,8.83333,-9.83333,3.43333,0.316228,1,1,67442.7,119514.0,1693,0.83216149,-4.2168198,21.256104,274.27563,6.81568,333.712,-6.37774,-15.4732,33.3676,44.4188
1980-04-07 00:40:35,1,8.56667,-10.0667,3.86667,0.270801,1,1,57850.1,125737.0,1693,0.83214641,-4.2170286,21.232666,274.27563,6.80623,339.711,-0.184873,-27.1322,30.9037,45.5605
1980-04-07 00:43:17,1,7.63333,-11.2667,3.6,0.343188,1,1,58971.0,103849.0,1693,0.83213127,-4.2172365,21.209229,274.27563,6.57154,333.399,2.06299,-20.3578,31.2016,41.4056
1980-04-07 00:45:59,1,6.66667,-11.5667,2.76667,0.94163,1,1,60778.4,105878.0,1693,0.83212119,-4.2173748,21.181885,274.27563,6.65895,338.584,6.66953,-8.08357,31.6762,41.808
1980-04-07 00:48:41,1,6.5,-11.3667,-1.13333,0.421637,1,1,67386.5,108377.0,1693,0.83210605,-4.2175837,21.158447,274.27563,6.92756,333.67,2.79274,1.64415,33.3537,42.2986
1980-04-07 00:51:23,1,5.2,-11.875,-0.95,2.48382,1,1,75321.0,118873.0,1693,0.83209091,-4.2177916,21.13501,274.27563,7.74648,348.716,6.68983,0.124005,35.2627,44.2996
1980-04-07 00:54:05,1,4.5,-12.825,4.275,0.54658,1,1,56861.5,118387.0,1693,0.83207583,-4.2179995,21.107666,274.27563,6.44356,345.94,7.41399,-31.9961,30.6385,44.209
1980-04-07 00:56:47,1,3.8,-13.2,2.5,0.173205,1,1,73407.2,104643.0,1693,0.83206576,-4.2181387,21.084229,274.27563,6.44461,352.776,9.85385,-19.0529,34.8119,41.5636
1980-04-07 00:59:29,1,4.6,-12.8,1.6,0.844591,1,1,60885.2,96028.9,1693,0.83205062,-4.2183466,21.060791,274.27563,6.46772,348.089,8.99643,-22.0715,31.704,39.8161
1980-04-07 01:02:11,1,4.53333,-12.7,1.33333,0.557773,1,1,80341.8,104968.0,1693,0.83203548,-4.2185545,21.033447,274.27563,6.31715,346.499,8.38006,-12.9251,36.419,41.628
1980-04-07 01:04:53,1,3.16667,-12.7333,0.9,0.459468,1,1,84951.7,93411.4,1693,0.83202541,-4.2186937,21.009766,274.27539,7.06778,353.715,12.3746,-9.00702,37.4493,39.2697
1980-04-07 01:07:35,1,3.86667,-12.4333,0.3,0.563718,1,1,87054.3,110457.0,1693,0.83201027,-4.2189016,20.986328,274.27539,7.62573,342.03,7.9563,0.719574,37.9099,42.7026
1980-04-07 01:10:17,1,4.93333,-11.8333,0.233333,0.282843,1,1,74831.1,94347.2,1693,0.83199513,-4.2191105,20.958984,274.27539,6.67368,350.157,11.5184,-0.58149,35.1479,39.4659
1980-04-07 01:12:59,1,7.35,-11.1,0.7,0.364005,1,1,76810.6,103863.0,1693,0.83198506,-4.2192488,20.935547,274.27539,6.89685,330.879,-1.64895,-7.18792,35.6097,41.4085
1980-04-07 01:15:41,1,5.8,-11.5333,0.0,0.249444,1,1,67305.0,106874.0,1693,0.83196992,-4.2194576,20.912109,274.27539,6.7722,326.249,0.573328,-10.0497,33.3336,42.0043
1980-04-07 01:18:23,1,4.25,-11.425,-1.775,0.711512,1,1,87130.5,83280.7,1693,0.83195478,-4.2196655,20.884766,274.27539,5.50172,329.867,-2.47418,1.78935,37.9265,37.0792
1980-04-07 01:21:05,1,7.43333,-10.6333,-9.25186e-18,0.301846,1,1,52460.6,107303.0,1693,0.8319397,-4.2198744,20.861328,274.27539,5.72253,328.65,2.03468,-7.1758,29.4289,42.0886
1980-04-07 01:23:47,1,6.5,-11.1,-1.7,0.0,1,1,42554.9,87535.0,1693,0.83192956,-4.2200127,20.837891,274.27539,5.58434,333.282,5.77295,-1.63918,26.5053,38.0144
1980-04-07 01:26:29,1,6.5,-10.7667,-1.56667,0.352767,1,1,57846.5,92965.4,1693,0.83191442,-4.2202215,20.810547,274.27539,6.50638,329.518,6.52292,-0.12851,30.9027,39.1759
1980-04-07 01:29:11,1,7.06667,-10.5,-1.16667,0.253859,1,1,59278.1,106132.0,1693,0.83189934,-4.2204294,20.787109,274.27539,6.6973,327.815,1.06078,-0.527428,31.2828,41.8583
1980-04-07 01:31:53,1,6.975,-10.3,-1.5,0.268095,1,1,42911.6,106894.0,1693,0.83188921,-4.2205687,20.763672,274.27539,5.83415,325.393,2.14812,-0.0674286,26.6161,42.0083
1980-04-07 01:34:35,1,6.76667,-10.2,-1.96667,0.362093,1,1,53125.4,103053.0,1693,0.83187413,-4.2207766,20.736328,274.27539,5.82742,328.129,1.51815,2.29002,29.6148,41.2466
1980-04-07 01:37:17,1,8.3,-9.66667,-1.46667,0.266667,1,1,48994.2,107942.0,1693,0.83185899,-4.2209854,20.712891,274.27539,5.88749,319.937,-4.93461,-1.6304,28.44,42.2136
1980-04-07 01:39:59,1,8.03333,-9.76667,-1.8,0.210819,1,1,43963.9,94426.1,1693,0.83184886,-4.2211237,20.689453,274.27539,5.17148,324.211,-0.11843,-0.277286,26.9405,39.4824
1980-04-07 01:42:41,1,8.575,-9.55,-1.2,0.307205,1,1,50368.6,92011.2,1693,0.83183378,-4.2213326,20.662109,274.27539,5.76045,322.75,-5.18871,-7.69556,28.8362,38.9743
1980-04-07 01:45:23,1,9.13333,-9.43333,-0.0666667,0.270801,1,1,70511.2,83893.5,1693,0.83181864,-4.2215405,20.638672,274.27539,5.56659,316.848,-12.6295,-14.8137,34.1183,37.2154
1980-04-07 01:48:05,1,8.6,-9.7,-0.3,0.0,1,1,64442.0,94498.2,1693,0.8318035,-4.2217493,20.615234,274.27539,5.39153,323.512,-5.07405,-11.0239,32.6169,39.4975
1980-04-07 01:50:47,1,9.13333,-9.16667,0.0333333,0.258199,1,1,53783.5,85763.7,1693,0.83179343,-4.2218876,20.587891,274.27539,5.823,319.995,-8.50629,-11.5182,29.7977,37.6279
1980-04-07 01:53:29,1,9.4,-9.3,0.4,5.55112e-17,1,1,59089.5,96470.0,1693,0.83177829,-4.2220964,20.564453,274.27539,6.2321,320.788,-12.1658,-12.0449,31.233,39.9075
1980-04-07 01:56:11,1,9.53333,-8.66667,0.4,0.210819,1,1,57899.7,106294.0,1693,0.83176315,-4.2223043,20.541016,274.27539,6.32756,319.431,-11.1935,-12.5973,30.9169,41.8901
1980-04-07 01:58:53,1,8.85,-9.35,0.3,0.360555,1,1,78986.6,96941.0,1693,0.83175308,-4.2224436,20.513672,274.27539,6.57802,328.621,-8.48821,-11.2029,36.1106,40.0047
1980-04-07 02:01:35,1,8.45,-9.625,-1.3,0.253722,1,1,82294.3,77462.4,1693,0.83173794,-4.2226515,20.490234,274.27539,6.51954,324.316,-10.8222,-7.95374,36.8589,35.7605
1980-04-07 02:04:17,1,8.7,-9.2,-1.5,0.0,1,1,70303.0,86519.0,1693,0.8317228,-4.2228603,20.466553,274.27515,5.68244,325.691,-10.6118,-3.26015,34.0678,37.7932
1980-04-07 02:06:59,1,10.4333,-8.43333,0.166667,0.282843,1,1,154495.0,84046.6,1693,0.83171266,-4.2229986,20.439209,274.27515,4.41097,346.061,-32.8307,-11.6598,50.5027,37.2493
1980-04-07 02:09:41,1,9.46667,-7.5,5.33333,0.380058,1,1,164797.0,82784.5,1693,0.83169752,-4.2232075,20.415771,274.27515,8.13338,334.311,-28.8841,-30.7075,52.1593,36.9685
1980-04-07 02:12:23,1,10.8,-5.16667,5.8,0.377124,1,1,110447.0,87243.5,1693,0.83168238,-4.2234154,20.392334,274.27515,6.18329,338.255,-36.4039,-20.5223,42.7007,37.9511
1980-04-07 02:15:05,1,10.65,-3.775,6.575,0.237171,1,1,121865.0,93019.3,1693,0.83166724,-4.2236242,20.36499,274.27515,7.7696,338.959,-39.4601,-21.1406,44.8536,39.1872
1980-04-07 02:17:47,1,10.375,-3.975,6.9,0.220794,1,1,55185.9,68594.4,1693,0.83165711,-4.2237625,20.341553,274.27515,5.25768,348.078,-41.0753,-20.541,30.1837,33.6513
1980-04-07 02:20:29,1,10.65,-4.1,6.2,0.206155,1,1,134954.0,82219.9,1693,0.83164197,-4.2239714,20.318115,274.27515,7.30818,339.924,-37.8921,-21.1139,47.2009,36.8423
1980-04-07 02:23:11,1,10.6,-3.45,7.175,0.263391,1,1,88510.1,57193.1,1693,0.83162683,-4.2241793,20.290771,274.27515,5.43322,348.478,-40.0672,-17.4117,38.2256,30.7277
1980-04-07 02:25:53,1,10.5,-3.5,7.26667,0.188562,1,1,55227.6,60137.4,1693,0.8316167,-4.2243185,20.267334,274.27515,4.77953,356.349,-38.9295,-11.7482,30.1951,31.5087
1980-04-07 02:28:35,1,9.16667,-4.8,8.7,0.298142,1,1,53534.1,43032.1,1693,0.83160156,-4.2245264,20.243896,274.27515,4.72494,348.291,-47.3741,-12.6695,29.7285,26.6535
1980-04-07 02:31:17,1,10.2333,-3.33333,8.46667,0.447214,1,1,38815.8,55996.2,1693,0.83158642,-4.2247353,20.216553,274.27515,4.56802,354.935,-45.9019,-15.2121,25.3141,30.4044
1980-04-07 02:33:59,1,9.95,-2.65,8.875,0.311247,1,1,43545.6,55506.2,1693,0.83157629,-4.2248745,20.193115,274.27515,4.45785,353.239,-40.7306,-10.8944,26.812,30.2711
1980-04-07 02:36:41,1,9.45,-1.9,8.6,0.193649,1,1,63766.1,52287.3,1693,0.83156115,-4.2250824,20.169678,274.27515,4.73105,355.235,-47.9705,-15.6645,32.4454,29.3803
1980-04-07 02:39:23,1,9.9,-2.7,8.35,0.676387,1,1,35502.4,52095.6,1693,0.83154601,-4.2252903,20.142334,274.27515,4.21309,357.898,-42.2253,-11.4691,24.2096,29.3264
1980-04-07 02:42:05,1,9.16667,-4.7,6.7,0.169967,1,1,171971.0,89902.0,1693,0.83153087,-4.2254992,20.118896,274.27515,8.02264,345.387,-37.5919,-21.3757,53.2825,38.525
1980-04-07 02:44:47,1,9.125,-5.35,6.5,0.315238,1,1,88264.5,68035.5,1693,0.83152074,-4.2256374,20.095459,274.27515,6.17379,348.844,-32.9918,-19.0503,38.1725,33.514
1980-04-07 02:47:29,1,9.93333,-3.73333,7.93333,0.282843,1,1,54582.6,68465.9,1693,0.8315056,-4.2258463,20.068115,274.27515,5.73807,355.641,-25.5053,-8.3203,30.0182,33.6198
1980-04-07 02:50:11,1,10.2333,-3.63333,7.26667,0.282843,1,1,62987.7,68090.7,1693,0.8315208,-4.0988317,19.957611,274.18808,6.12076,350.862,-29.1406,-11.0701,32.2467,33.5276
1980-04-07 02:51:55,-1,nan,nan,nan,nan,1,4,nan,nan,1693,0.83148539,-4.2261238,20.029053,274.27515,nan,nan,nan,nan,nan,nan
1980-04-07 02:52:53,1,10.3333,-4.16667,7.13333,0.416333,1,1,72858.0,70683.5,1693,0.83150721,-4.099021,19.930237,274.18805,6.642,352.338,-26.0287,-8.47493,34.6814,34.1599
1980-04-07 02:55:35,1,10.8,-3.4,6.1,0.0,1,1,55068.2,62498.7,1693,0.83146518,-4.2264013,19.993896,274.27515,5.53567,348.833,-29.5442,-6.21228,30.1515,32.1213
1980-04-07 03:35:07,-1,nan,nan,nan,nan,1,3,nan,nan,1693,0.83126301,-4.2291813,19.630615,274.27515,nan,335.568,-19.5696,-8.12138,nan,nan
1980-04-07 03:45:55,-1,nan,nan,nan,nan,1,3,nan,nan,1693,0.83121246,-4.2298765,19.532959,274.27515,nan,348.805,-25.6361,-3.70462,nan,nan
1980-04-07 03:56:43,-1,nan,nan,nan,nan,1,3,nan,nan,1693,0.83115685,-4.2306404,19.435303,274.27515,nan,341.072,-24.9697,-9.50811,nan,nan
1980-04-07 04:07:31,-1,nan,nan,nan,nan,1,3,nan,nan,1693,0.83110118,-4.2314043,19.333496,274.2749,nan,338.773,-15.6704,-14.1645,nan,nan
1980-04-07 04:18:19,-1,nan,nan,nan,nan,1,3,nan,nan,1693,0.83104551,-4.2321682,19.23584,274.2749,nan,343.575,-3.85103,10.7238,nan,nan
1980-04-07 04:29:07,-1,nan,nan,nan,nan,1,3,nan,nan,1693,0.83098984,-4.2329321,19.138184,274.2749,nan,345.361,6.10242,24.6608,nan,nan
1980-04-07 04:39:55,-1,nan,nan,nan,nan,1,3,nan,nan,1693,0.83093923,-4.2336264,19.036621,274.2749,nan,343.124,-27.3082,-22.4166,nan,nan
1980-04-07 04:50:43,-1,nan,nan,nan,nan,1,3,nan,nan,1693,0.83088362,-4.2343903,18.938965,274.2749,nan,353.046,-22.9531,-36.2265,nan,nan
1980-04-07 05:01:31,-1,nan,nan,nan,nan,1,3,nan,nan,1693,0.83082795,-4.2351542,18.841309,274.2749,nan,344.227,-17.8514,0.515039,nan,nan
1980-04-07 05:12:19,-1,nan,nan,nan,nan,1,3,nan,nan,1693,0.83077222,-4.235919,18.739746,274.2749,nan,349.737,-8.99347,-16.6804,nan,nan
1980-04-07 05:23:07,-1,nan,nan,nan,nan,1,3,nan,nan,1693,0.83071649,-4.2366838,18.64209,274.2749,nan,385.955,22.8262,47.3114,nan,nan
1980-04-07 05:33:55,-1,nan,nan,nan,nan,1,3,nan,nan,1693,0.83066583,-4.2373791,18.544434,274.2749,nan,390.129,-33.2745,5.5695,nan,nan
1980-04-07 05:44:43,-1,nan,nan,nan,nan,1,3,nan,nan,1693,0.8306101,-4.238143,18.442871,274.2749,nan,368.927,-27.1996,-11.7463,nan,nan
1980-04-07 05:55:31,-1,nan,nan,nan,nan,1,3,nan,nan,1693,0.83055437,-4.2389078,18.345215,274.2749,nan,358.691,-21.1338,-7.05368,nan,nan
1980-04-07 06:06:19,-1,nan,nan,nan,nan,1,3,nan,nan,1693,0.83049864,-4.2396727,18.243408,274.27466,nan,358.009,-28.5645,-17.1507,nan,nan
1980-04-07 06:17:07,-1,nan,nan,nan,nan,1,3,nan,nan,1693,0.83044285,-4.2404375,18.145752,274.27466,nan,362.367,-23.9308,-9.35246,nan,nan
1980-04-07 06:27:55,-1,nan,nan,nan,nan,1,3,nan,nan,1693,0.83039212,-4.2411337,18.048096,274.27466,nan,392.701,-38.296,2.32411,nan,nan
1980-04-07 06:38:43,-1,nan,nan,nan,nan,1,3,nan,nan,1693,0.83033633,-4.2418985,17.946533,274.27466,nan,405.89,-46.8548,5.94208,nan,nan
1980-04-07 06:49:31,-1,nan,nan,nan,nan,1,3,nan,nan,1693,0.83028054,-4.2426634,17.848877,274.27466,nan,395.052,-37.7341,7.51624,nan,nan
1980-04-07 07:00:19,-1,nan,nan,nan,nan,1,3,nan,nan,1693,0.83022481,-4.2434292,17.751221,274.27466,nan,410.147,-41.6949,7.91424,nan,nan
1980-04-07 07:06:10,-1,nan,nan,nan,nan,1,3,nan,nan,1693,0.83022457,-4.1170359,17.609344,274.18747,nan,410.146,-41.694,7.91424,nan,nan
1980-04-07 07:10:58,1,5.1,1.5,-0.25,0.269258,1,1,122489.0,74821.6,1693,0.83020031,-4.1173749,17.566345,274.18744,11.9515,403.091,-35.8138,7.64222,44.9683,35.1456
1980-04-07 07:44:16,1,7.6,0.575,0.6,0.319179,1,1,85027.3,96460.1,1693,0.83000135,-4.2464867,17.348877,274.27466,7.52491,396.965,-39.9651,12.8012,37.466,39.9054
1980-04-07 07:45:37,1,7.875,0.7125,1.4,0.250936,1,1,255893.0,99447.1,1693,0.82999629,-4.2465563,17.333252,274.27466,12.5463,379.104,-39.4372,15.8134,64.9961,40.5186
1980-04-07 07:46:58,1,7.525,0.6625,1.4,0.221853,1,1,95157.7,101701.0,1693,0.82999122,-4.2466249,17.321533,274.27466,8.13739,395.28,-37.9548,10.5632,39.6351,40.9751
1980-04-07 07:47:26,1,7.7625,0.8375,1.2,0.323554,1,1,323153.0,84077.3,1693,0.82998616,-4.2466946,17.317627,274.27466,12.6337,369.449,-42.1671,13.1798,73.0403,37.2561
1980-04-07 07:48:47,1,7.75,0.9625,1.75,0.239466,1,1,103740.0,100394.0,1693,0.82998109,-4.2467642,17.305908,274.27466,8.00782,396.443,-37.7033,13.3049,41.3839,40.711
1980-04-07 07:50:08,1,7.5625,0.7375,1.4,1.24687,1,1,349241.0,97194.5,1693,0.8299709,-4.2469034,17.294189,274.27466,12.7971,370.793,-38.5185,15.1322,75.9312,40.057
1980-04-07 07:51:29,1,7.52857,0.528571,0.885714,0.410077,1,1,168365.0,92293.0,1693,0.82996583,-4.246973,17.282471,274.27466,12.0271,386.415,-36.7614,23.2354,52.721,39.0339
1980-04-07 07:52:50,1,7.6125,0.4,1.7,0.289126,1,1,218822.0,83366.1,1693,0.82996076,-4.2470427,17.266846,274.27466,12.2721,378.289,-35.8027,15.5622,60.104,37.0982
1980-04-07 07:54:11,-1,nan,nan,nan,nan,1,4,nan,nan,1693,0.82995063,-4.2471809,17.255127,274.27466,nan,nan,nan,nan,nan,nan
1980-04-07 07:55:32,1,7.55,0.0875,2.4,0.541843,1,1,190188.0,82422.0,1693,0.8299455,-4.2472506,17.243408,274.27466,12.0336,387.247,-35.157,13.1507,56.0338,36.8875
1980-04-07 07:56:53,1,7.4125,-0.1875,3.2125,0.32524,1,1,156676.0,92506.8,1693,0.82994044,-4.2473202,17.231689,274.27466,12.1639,387.613,-35.5477,11.4546,50.858,39.0791
1980-04-07 07:58:14,1,7.48571,0.0857143,3.07143,0.290671,1,1,181661.0,83591.2,1693,0.82993031,-4.2474594,17.219971,274.27466,13.0173,384.816,-34.3889,9.77873,54.7632,37.1482
1980-04-07 07:59:35,1,7.725,0.325,2.95,0.302076,1,1,68432.6,79080.3,1693,0.82992524,-4.247529,17.208252,274.27466,8.77622,397.144,-33.2415,11.0836,33.6116,36.132
1980-04-07 08:00:56,1,7.48571,0.2,2.48571,0.271804,1,1,163334.0,89054.2,1693,0.82992011,-4.2475986,17.192627,274.27466,12.8273,388.383,-34.0581,13.4712,51.9273,38.3429
1980-04-07 08:02:17,1,7.37143,0.342857,1.85714,0.368117,1,1,145849.0,87875.3,1693,0.82990998,-4.2477369,17.180908,274.27466,12.8343,392.181,-35.3068,14.6442,49.0693,38.0883
1980-04-07 08:03:38,1,7.5625,1.175,1.9,0.302851,1,1,135975.0,59983.1,1693,0.82990491,-4.2478065,17.169189,274.27466,12.8584,401.803,-33.2419,12.8579,47.3792,31.4682
1980-04-07 08:04:59,1,7.625,0.9125,1.85,0.350669,1,1,53737.0,60998.6,1693,0.82989979,-4.2478762,17.157471,274.27466,10.7735,401.52,-32.4427,14.3563,29.7848,31.7335
1980-04-07 08:06:20,1,7.6,0.971429,1.8,0.218529,1,1,140786.0,63487.4,1693,0.82988966,-4.2480154,17.145752,274.27466,13.2316,398.913,-33.5172,14.2198,48.21,32.3744
1980-04-07 08:07:41,1,7.9875,1.2375,2.425,0.320644,1,1,60419.4,62023.7,1693,0.82988459,-4.248085,17.134033,274.27466,9.72062,398.834,-32.6868,14.9799,31.5825,31.999
1980-04-07 08:09:02,1,8.0,1.2,2.75714,0.292072,1,1,142508.0,70284.2,1693,0.8298744,-4.2482243,17.118408,274.27466,13.3826,394.356,-33.589,14.7138,48.5039,34.0633
1980-04-07 08:10:23,1,7.81429,1.62857,3.65714,0.244949,1,1,105924.0,69862.3,1693,0.82986933,-4.2482939,17.106689,274.27466,12.6028,396.742,-31.8183,16.177,41.8171,33.9609
1980-04-07 08:11:44,1,8.05,1.975,3.65,0.198431,1,1,143290.0,63195.9,1693,0.82986426,-4.2483635,17.094971,274.27466,12.6478,391.505,-34.6201,15.3499,48.637,32.3
1980-04-07 08:13:05,1,7.8875,1.5875,3.625,0.281181,1,1,69744.9,56612.6,1693,0.82985407,-4.2485027,17.083252,274.27466,10.568,399.994,-30.4425,19.06,33.9324,30.5713
1980-04-07 08:14:26,1,7.625,1.7375,3.4,0.221853,1,1,137465.0,62361.6,1693,0.829849,-4.2485723,17.071533,274.27466,13.5437,397.873,-30.7964,16.4987,47.6381,32.0861
1980-04-07 08:15:47,1,7.5625,1.7,3.25,0.312,1,1,66357.8,54713.1,1693,0.82984394,-4.248642,17.059814,274.27466,10.2238,401.442,-27.8668,17.3222,33.0982,30.0541
1980-04-07 08:17:08,1,7.7875,1.7125,3.1625,0.423711,1,1,114458.0,62865.1,1693,0.82983375,-4.2487803,17.044189,274.27466,12.1888,393.657,-32.2705,15.8871,43.469,32.2154
1980-04-07 08:18:29,1,7.85,1.475,3.8375,0.178098,1,1,67511.3,58935.0,1693,0.82982868,-4.2488499,17.032471,274.27466,10.7995,400.507,-28.8062,15.9342,33.3846,31.1921
1980-04-07 08:19:50,1,7.82857,1.18571,3.62857,0.361967,1,1,136529.0,62707.1,1693,0.82982361,-4.2489195,17.020752,274.27466,14.373,399.559,-29.5967,14.6345,47.4756,32.1748
1980-04-07 08:21:11,1,7.975,0.8375,3.7,0.326678,1,1,54770.3,47085.7,1693,0.82981342,-4.2490587,17.009033,274.27466,10.3712,402.5,-27.2659,16.7422,30.0698,27.8806
1980-04-07 08:22:32,1,7.675,0.425,4.1,0.314245,1,1,126209.0,67487.5,1693,0.82980835,-4.2491283,16.997314,274.27466,13.3223,397.074,-29.5149,14.7264,45.6461,33.3787
1980-04-07 08:23:53,1,8.01429,0.714286,3.34286,0.584843,1,1,122906.0,71333.1,1693,0.82980329,-4.249198,16.985596,274.27466,12.6087,390.965,-30.4409,13.4832,45.0448,34.3165
1980-04-07 08:25:14,1,7.9625,1.225,2.8375,0.749375,1,1,116672.0,67526.2,1693,0.8297931,-4.2493372,16.969971,274.27466,11.8953,390.639,-28.9491,12.4425,43.8875,33.3883
1980-04-07 08:26:35,1,7.825,0.325,4.55,0.302076,1,1,126665.0,71936.3,1693,0.82978803,-4.2494068,16.958252,274.27466,12.5826,391.904,-31.3216,10.8662,45.7284,34.4613
1980-04-07 08:27:56,1,8.1875,0.2875,3.95,0.512042,1,1,131175.0,75004.6,1693,0.82978296,-4.2494764,16.946533,274.27466,13.1417,390.732,-29.3351,16.3953,46.5354,35.1886
1980-04-07 08:29:17,1,8.0125,0.25,3.7,0.525446,1,1,131646.0,78519.2,1693,0.82977277,-4.2496157,16.934814,274.27466,12.8352,390.492,-28.8382,14.7533,46.619,36.0036
1980-04-07 08:30:38,1,7.88571,0.7,4.48571,0.392272,1,1,76539.8,60925.5,1693,0.8297677,-4.2496853,16.923096,274.27466,11.1716,392.156,-30.7834,12.055,35.5469,31.7145
1980-04-07 08:31:59,1,7.3,1.375,5.05,0.277263,1,1,154930.0,71951.9,1693,0.82976264,-4.2497549,16.911377,274.27466,11.5508,387.158,-28.6948,7.59554,50.5738,34.4651
1980-04-07 08:33:20,1,8.0875,0.175,3.85,0.245904,1,1,120719.0,70927.2,1693,0.82975245,-4.2498932,16.895752,274.27466,11.4675,383.983,-26.4995,9.97231,44.6423,34.2188
1980-04-07 08:34:41,1,8.1375,0.2,3.9,0.29554,1,1,176056.0,78012.8,1693,0.82974738,-4.2499628,16.884033,274.27466,12.6525,382.458,-27.1558,10.3074,53.9117,35.8873
1980-04-07 08:36:02,1,8.4625,-0.325,3.75,0.290205,1,1,130054.0,69090.7,1693,0.82973725,-4.250102,16.872314,274.27466,11.1336,383.985,-23.4621,9.16313,46.3361,33.7729
1980-04-07 08:37:23,1,8.64286,-0.0285714,4.47143,0.298978,1,1,129706.0,74721.0,1693,0.82973212,-4.2501717,16.860596,274.27466,11.8913,385.814,-23.7295,7.33474,46.2742,35.122
1980-04-07 08:38:44,1,8.375,-0.125,4.05,0.310242,1,1,122588.0,69638.4,1693,0.82972705,-4.2502413,16.848877,274.27466,11.1398,385.975,-24.0549,8.06702,44.9864,33.9065
1980-04-07 08:40:05,1,8.7,-0.3375,3.9,0.223257,1,1,135641.0,69147.2,1693,0.82971692,-4.2503805,16.837158,274.27466,11.4392,387.035,-23.0053,8.36743,47.321,33.7867
1980-04-07 08:41:26,1,8.27143,-0.928571,4.31429,0.353986,1,1,107785.0,69159.3,1693,0.82971179,-4.2504501,16.821533,274.27466,11.0663,384.285,-23.1712,8.97308,42.1829,33.7896
1980-04-07 08:42:47,1,8.1375,-0.7125,4.9,0.251868,1,1,129619.0,65779.6,1693,0.82970673,-4.2505198,16.809814,274.27466,11.5362,385.798,-21.9591,6.33299,46.2586,32.9536
1980-04-07 08:44:08,1,8.15,-0.8,4.7,0.244949,1,1,111312.0,68858.7,1693,0.8296966,-4.250659,16.798096,274.27466,11.2848,384.538,-20.5955,7.48795,42.8675,33.7161
1980-04-07 08:45:29,1,8.05714,-0.814286,4.5,0.274048,1,1,130144.0,72112.2,1693,0.82969147,-4.2507286,16.786377,274.27466,11.6414,384.345,-21.6831,6.47229,46.3522,34.5034
1980-04-07 08:46:50,1,8.275,0.225,5.0875,0.363791,1,1,134601.0,60921.9,1693,0.8296864,-4.2507973,16.774658,274.27466,10.4614,382.566,-26.7883,4.22221,47.1392,31.7135
1980-04-07 08:48:11,1,8.1,0.3125,4.9,0.28477,1,1,162309.0,79991.7,1693,0.82967627,-4.2509365,16.762939,274.27466,11.3381,381.404,-25.6707,6.09287,51.7641,36.3396
1980-04-07 08:49:32,1,8.0875,0.525,4.75,0.32476,1,1,158620.0,69715.7,1693,0.82967114,-4.2510061,16.747314,274.27466,10.5955,379.72,-27.5217,5.24091,51.1726,33.9253
1980-04-07 08:50:53,1,8.7625,1.025,4.35,0.31499,1,1,162533.0,58202.9,1693,0.82966608,-4.2510757,16.735596,274.27466,11.2602,380.298,-29.3055,9.60903,51.7998,30.9978
1980-04-07 08:52:14,1,8.78571,0.985714,4.21429,0.279212,1,1,129529.0,60000.8,1693,0.82965595,-4.251215,16.723877,274.27466,9.90399,381.696,-27.8219,8.10856,46.2426,31.4729
1980-04-07 08:53:35,1,7.4875,0.1375,4.6375,1.09694,1,1,105911.0,87278.0,1693,0.82965082,-4.2512846,16.712158,274.27466,10.8928,387.156,-28.0841,8.00823,41.8147,37.9586
1980-04-07 08:54:56,1,7.0,-0.3,4.7,0.0,1,1,93205.5,81309.0,1693,0.82964575,-4.2513542,16.700439,274.27466,10.8253,386.759,-25.252,10.2223,39.2264,36.6376
1980-04-07 08:56:17,1,7.2,-0.657143,4.58571,0.234738,1,1,101311.0,95171.2,1693,0.82963562,-4.2514935,16.684814,274.27466,11.4285,389.643,-24.618,8.063,40.8965,39.6379
1980-04-07 08:57:38,1,7.475,-0.4,4.65,0.222205,1,1,100107.0,84798.4,1693,0.82963049,-4.2515631,16.673096,274.27466,11.3916,386.171,-24.8934,10.0997,40.6528,37.4155
1980-04-07 08:58:59,1,7.55714,-0.1,4.07143,0.344638,1,1,116144.0,98115.0,1693,0.82962543,-4.2516327,16.661377,274.27466,11.7611,383.789,-23.9369,8.22837,43.7881,40.2463
1980-04-07 09:00:20,1,7.72857,-0.328571,4.01429,0.443548,1,1,89434.8,81800.5,1693,0.82961529,-4.2517719,16.649658,274.27466,10.5071,386.754,-26.8224,10.6072,38.4248,36.7482
1980-04-07 09:01:41,1,7.3375,-0.325,4.45,0.326678,1,1,109262.0,96766.1,1693,0.82961017,-4.2518406,16.637939,274.27466,11.5495,383.208,-24.458,8.62718,42.471,39.9686
1980-04-07 09:03:02,1,7.61429,-0.7,4.67143,0.38226,1,1,116825.0,80120.9,1693,0.82959998,-4.2519798,16.626221,274.27466,11.6164,384.314,-22.2383,8.01512,43.9163,36.3689
1980-04-07 09:04:23,1,7.58571,-0.5,5.6,0.356285,1,1,177587.0,80304.1,1693,0.82959491,-4.2520494,16.610596,274.27466,12.4864,383.633,-23.2033,5.54236,54.1457,36.4105